| time (UTC) | temp F | wind direction | speed knots | gust knots | rain 1hr in | rain 24hr in | rain mn in | humidity % | barometer mb |
| 20260906171612 | 72 | 1 | 1.7 | 6.1 | 0.00 | 0.00 | 0.00 | 97 | 980.0 |
| 20260906170008 | 72 | 1 | 1.7 | 7.0 | 0.00 | 0.00 | 0.00 | 98 | 980.1 |
| 20260906164506 | 71 | 10 | 1.7 | 5.2 | 0.00 | 0.00 | 0.00 | 98 | 980.2 |
| 20260906163005 | 71 | 10 | 1.7 | 7.0 | 0.00 | 0.00 | 0.00 | 98 | 979.9 |
| 20260906161508 | 71 | 1 | 1.7 | 5.2 | 0.00 | 0.00 | 0.00 | 99 | 980.0 |
| 20260906160011 | 70 | 10 | 1.7 | 4.3 | 0.00 | 0.00 | 0.00 | 98 | 980.0 |
| 20260906154504 | 70 | 360 | 1.7 | 3.5 | 0.00 | 0.00 | 0.00 | 99 | 979.9 |
| 20260906153003 | 70 | 11 | 1.7 | 4.3 | 0.00 | 0.00 | 0.00 | 99 | 980.1 |
| 20260906151502 | 70 | 11 | 1.7 | 7.0 | 0.00 | 0.00 | 0.00 | 99 | 980.2 |
| 20260906150002 | 70 | 10 | 1.7 | 5.2 | 0.00 | 0.00 | 0.00 | 99 | 980.4 |
| 20260906144501 | 70 | 11 | 1.7 | 6.1 | 0.00 | 0.00 | 0.00 | 99 | 980.2 |
| 20260906143114 | 69 | 10 | 1.7 | 2.6 | 0.00 | 0.00 | 0.00 | 99 | 980.2 |
| 20260906141602 | 69 | 360 | 0.9 | 5.2 | 0.00 | 0.00 | 0.00 | 98 | 980.2 |
| 20260906134559 | 69 | 10 | 2.6 | 5.2 | 0.00 | 0.00 | 0.00 | 98 | 980.1 |
| 20260906133106 | 69 | 10 | 1.7 | 5.2 | 0.00 | 0.00 | 0.00 | 98 | 980.4 |
| 20260906131559 | 69 | 360 | 1.7 | 4.3 | 0.00 | 0.00 | 0.00 | 98 | 980.1 |
| 20260906130054 | 69 | 10 | 0.9 | 6.1 | 0.00 | 0.00 | 0.00 | 99 | 979.6 |
| 20260906124553 | 69 | 10 | 1.7 | 4.3 | 0.00 | 0.00 | 0.00 | 99 | 979.5 |
| 20260906123051 | 69 | 10 | 1.7 | 5.2 | 0.00 | 0.00 | 0.00 | 98 | 979.4 |
| 20260906121551 | 69 | 9 | 1.7 | 4.3 | 0.00 | 0.00 | 0.00 | 99 | 979.3 |
| 20260906120048 | 68 | 10 | 1.7 | 4.3 | 0.00 | 0.00 | 0.00 | 99 | 979.1 |
| 20260906114550 | 68 | 10 | 1.7 | 5.2 | 0.00 | 0.00 | 0.00 | 99 | 978.8 |
| 20260906113049 | 68 | 10 | 0.9 | 2.6 | 0.00 | 0.00 | 0.00 | 99 | 978.8 |
| 20260906111545 | 68 | 10 | 0.9 | 3.5 | 0.00 | 0.00 | 0.00 | 98 | 978.7 |
| 20260906110145 | 68 | 10 | 0.0 | 2.6 | 0.00 | 0.00 | 0.00 | 98 | 978.8 |
| 20260906104542 | 68 | 9 | 0.0 | 3.5 | 0.00 | 0.00 | 0.00 | 98 | 978.8 |
| 20260906103042 | 69 | 10 | 0.9 | 4.3 | 0.00 | 0.00 | 0.00 | 98 | 978.8 |
| 20260906101542 | 69 | 10 | 0.9 | 3.5 | 0.00 | 0.00 | 0.00 | 98 | 978.7 |
| 20260906100040 | 69 | 9 | 0.0 | 2.6 | 0.00 | 0.00 | 0.00 | 98 | 978.6 |
| 20260906094539 | 69 | 9 | 0.9 | 2.6 | 0.00 | 0.00 | 0.00 | 98 | 978.6 |
| 20260906093039 | 69 | 9 | 0.0 | 0.9 | 0.00 | 0.00 | 0.00 | 98 | 978.7 |
| 20260906091538 | 69 | 9 | 0.9 | 1.7 | 0.00 | 0.00 | 0.00 | 98 | 978.7 |
| 20260906090036 | 69 | 9 | 0.0 | 0.9 | 0.00 | 0.00 | 0.00 | 98 | 978.5 |
| 20260906084536 | 69 | 9 | 0.0 | 3.5 | 0.00 | 0.00 | 0.00 | 98 | 978.4 |
| 20260906083040 | 69 | 10 | 0.0 | 4.3 | 0.00 | 0.00 | 0.00 | 98 | 978.3 |
| 20260906081537 | 69 | 9 | 0.9 | 3.5 | 0.00 | 0.00 | 0.00 | 98 | 978.1 |
| 20260906080033 | 70 | 9 | 1.7 | 3.5 | 0.00 | 0.00 | 0.00 | 98 | 978.1 |
| 20260906074535 | 70 | 10 | 0.9 | 2.6 | 0.00 | 0.00 | 0.00 | 97 | 978.2 |
| 20260906073030 | 70 | 9 | 0.0 | 0.9 | 0.00 | 0.00 | 0.00 | 98 | 978.6 |
| 20260906071530 | 70 | 9 | 0.0 | 1.7 | 0.00 | 0.00 | 0.00 | 97 | 978.4 |
| 20260906070031 | 70 | 9 | 0.0 | 1.7 | 0.00 | 0.00 | 0.00 | 97 | 978.5 |
| 20260906064534 | 70 | 9 | 0.0 | 1.7 | 0.00 | 0.00 | 0.00 | 97 | 978.5 |
| 20260906063026 | 71 | 9 | 0.0 | 1.7 | 0.00 | 0.00 | 0.00 | 97 | 978.5 |
| 20260906061526 | 71 | 10 | 0.9 | 4.3 | 0.00 | 0.00 | 0.00 | 97 | 978.4 |
| 20260906060023 | 71 | 9 | 0.0 | 4.3 | 0.00 | 0.00 | 0.00 | 97 | 978.3 |
| 20260906054521 | 72 | 10 | 1.7 | 6.1 | 0.00 | 0.00 | 0.00 | 97 | 978.1 |
| 20260906053021 | 72 | 10 | 1.7 | 6.1 | 0.00 | 0.00 | 0.00 | 97 | 978.1 |
| 20260906051513 | 72 | 9 | 1.7 | 6.1 | 0.00 | 0.00 | 0.00 | 97 | 978.1 |
| 20260906050026 | 72 | 10 | 1.7 | 5.2 | 0.00 | 0.00 | 0.00 | 96 | 978.1 |
| 20260906044509 | 72 | 8 | 1.7 | 6.1 | 0.00 | 0.00 | 0.00 | 96 | 978.3 |
| 20260906043010 | 72 | 9 | 1.7 | 4.3 | 0.00 | 0.00 | 0.00 | 96 | 978.0 |
| 20260906041507 | 73 | 9 | 0.9 | 3.5 | 0.00 | 0.00 | 0.00 | 97 | 978.1 |
| 20260906040009 | 73 | 9 | 1.7 | 4.3 | 0.00 | 0.00 | 0.00 | 97 | 978.1 |
| 20260906034505 | 73 | 10 | 0.9 | 3.5 | 0.00 | 0.00 | 0.00 | 96 | 978.1 |
| 20260906033005 | 73 | 9 | 0.9 | 4.3 | 0.00 | 0.00 | 0.00 | 97 | 978.1 |
| 20260906031504 | 74 | 8 | 1.7 | 3.5 | 0.00 | 0.00 | 0.00 | 96 | 977.9 |
| 20260906030004 | 74 | 9 | 0.9 | 3.5 | 0.00 | 0.00 | 0.00 | 96 | 977.9 |
| 20260906024505 | 74 | 10 | 0.9 | 3.5 | 0.00 | 0.00 | 0.00 | 96 | 977.7 |
| 20260906023002 | 75 | 8 | 1.7 | 5.2 | 0.00 | 0.00 | 0.00 | 96 | 977.6 |
| 20260906021502 | 75 | 10 | 1.7 | 6.1 | 0.00 | 0.00 | 0.00 | 96 | 977.4 |
| 20260906020001 | 76 | 8 | 0.0 | 4.3 | 0.00 | 0.00 | 0.00 | 95 | 977.3 |
| 20260906014621 | 77 | 9 | 0.9 | 3.5 | 0.00 | 0.00 | 0.00 | 95 | 976.9 |
| 20260906013059 | 77 | 10 | 1.7 | 3.5 | 0.00 | 0.00 | 0.00 | 95 | 976.5 |
| 20260906011605 | 78 | 9 | 0.9 | 3.5 | 0.00 | 0.00 | 0.00 | 94 | 976.4 |
| 20260906010059 | 79 | 9 | 0.9 | 3.5 | 0.00 | 0.00 | 0.00 | 92 | 976.5 |
| 20260906004600 | 80 | 8 | 0.0 | 2.6 | 0.00 | 0.00 | 0.00 | 90 | 976.5 |
| 20260906003106 | 80 | 8 | 0.0 | 4.3 | 0.00 | 0.00 | 0.00 | 89 | 976.4 |
| 20260906001557 | 81 | 8 | 0.9 | 2.6 | 0.00 | 0.00 | 0.00 | 88 | 976.3 |
| 20260906000056 | 82 | 9 | 0.0 | 2.6 | 0.00 | 0.00 | 0.00 | 87 | 976.3 |
| 20260905234612 | 82 | 9 | 0.0 | 0.9 | 0.00 | 0.00 | 0.00 | 87 | 976.5 |
| 20260905233055 | 83 | 9 | 0.0 | 3.5 | 0.00 | 0.00 | 0.00 | 84 | 976.2 |
| 20260905231554 | 83 | 9 | 0.9 | 3.5 | 0.00 | 0.00 | 0.00 | 84 | 976.3 |
| 20260905230054 | 84 | 9 | 1.7 | 5.2 | 0.00 | 0.00 | 0.00 | 83 | 976.1 |
| 20260905224553 | 83 | 10 | 2.6 | 4.3 | 0.00 | 0.00 | 0.00 | 84 | 976.0 |
| 20260905223052 | 84 | 9 | 1.7 | 4.3 | 0.00 | 0.00 | 0.00 | 84 | 976.0 |
| 20260905221552 | 85 | 9 | 0.0 | 3.5 | 0.00 | 0.00 | 0.00 | 82 | 976.3 |
| 20260905220053 | 85 | 10 | 1.7 | 6.1 | 0.00 | 0.00 | 0.00 | 80 | 976.1 |
| 20260905214602 | 85 | 9 | 1.7 | 5.2 | 0.00 | 0.00 | 0.00 | 82 | 976.0 |
| 20260905213050 | 86 | 325 | 1.7 | 4.3 | 0.00 | 0.00 | 0.00 | 78 | 976.0 |
| 20260905211548 | 87 | 356 | 2.6 | 5.2 | 0.00 | 0.00 | 0.00 | 79 | 975.8 |
| 20260905210048 | 86 | 30 | 6.1 | 12.2 | 0.00 | 0.00 | 0.00 | 81 | 975.0 |
| 20260905204547 | 86 | 316 | 5.2 | 11.3 | 0.00 | 0.00 | 0.00 | 81 | 975.2 |
| 20260905203046 | 86 | 350 | 4.3 | 9.6 | 0.00 | 0.00 | 0.00 | 81 | 975.6 |
| 20260905201545 | 86 | 333 | 3.5 | 8.7 | 0.00 | 0.00 | 0.00 | 84 | 976.0 |
| 20260905200047 | 86 | 309 | 3.5 | 7.8 | 0.00 | 0.00 | 0.00 | 85 | 976.3 |
| 20260905194541 | 85 | 324 | 3.5 | 8.7 | 0.00 | 0.00 | 0.00 | 84 | 976.6 |
| 20260905193040 | 86 | 9 | 2.6 | 7.0 | 0.00 | 0.00 | 0.00 | 86 | 976.8 |
| 20260905191539 | 84 | 10 | 3.5 | 8.7 | 0.00 | 0.00 | 0.00 | 86 | 976.8 |
| 20260905190035 | 83 | 9 | 3.5 | 7.8 | 0.00 | 0.00 | 0.00 | 88 | 977.0 |
| 20260905184538 | 81 | 9 | 0.0 | 3.5 | 0.00 | 0.00 | 0.00 | 89 | 977.2 |
| 20260905183037 | 81 | 6 | 0.9 | 3.5 | 0.00 | 0.00 | 0.00 | 88 | 977.7 |
| 20260905181534 | 83 | 6 | 1.7 | 5.2 | 0.00 | 0.00 | 0.00 | 84 | 978.0 |
| 20260905180033 | 84 | 7 | 0.9 | 7.0 | 0.00 | 0.00 | 0.00 | 85 | 977.7 |
| 20260905174539 | 84 | 8 | 0.9 | 4.3 | 0.00 | 0.00 | 0.00 | 84 | 977.7 |
| 20260905173028 | 83 | 8 | 0.0 | 2.6 | 0.00 | 0.00 | 0.00 | 86 | 978.0 |